This demonstration page uses our WeatherBlox Daily Observations layout. Learn more.

Left ArrowRight Arrow

Hourly Observations for August 21, 2022

Temp ( °F °C ) Dew Point ( °F °C ) Humidity (%) Winds ( mph kmh ) Pressure ( in mb ) Visibility ( mi km ) Precip ( " mm )
12:52 am 00:52 Clear 70 21.1 69 20.6 97 97 Calm 29.97 1015 9 14 0.00 0.00
1:52 am 01:52 Partly Cloudy 70 21.1 69 20.6 97 97 N 3 6 29.96 1014 9 14 0.00 0.00
2:52 am 02:52 Mostly Cloudy 70 21.1 68 20 93 93 N 6 9 29.95 1014 10 16 0.00 0.00
3:52 am 03:52 Mostly Cloudy 70 21.1 68 20 93 93 N 3 6 29.96 1015 10 16 0.00 0.00
4:52 am 04:52 Mostly Cloudy 69 20.6 68 20 96 96 NW 3 6 29.98 1015 9 14 0.00 0.00
5:52 am 05:52 Clear 68 20 67 19.4 96 96 NW 3 6 29.99 1016 7 11 0.00 0.00
6:52 am 06:52 Mostly Sunny 67 19.4 66 18.9 97 97 NNW 6 9 30.02 1017 9 14 0.00 0.00
7:52 am 07:52 Mostly Cloudy 68 20 66 18.9 93 93 N 5 7 30.04 1017 10 16 0.00 0.00
8:52 am 08:52 Mostly Cloudy 71 21.7 65 18.3 81 81 NNE 8 13 30.05 1018 10 16 0.00 0.00
9:52 am 09:52 Sunny 74 23.3 65 18.3 74 74 NNE 5 7 30.06 1018 10 16 0.00 0.00
10:52 am 10:52 Sunny 77 25 63 17.2 62 62 NNE 10 17 30.05 1018 10 16 0.00 0.00
11:52 am 11:52 Sunny 79 26.1 64 17.8 60 60 NW 7 11 30.04 1017 10 16 0.00 0.00
12:52 pm 12:52 Sunny 80 26.7 64 17.8 58 58 VRB 5 7 30.03 1017 10 16 0.00 0.00
1:52 pm 13:52 Sunny 81 27.2 62 16.7 53 53 Calm 30.02 1017 10 16 0.00 0.00
2:52 pm 14:52 Sunny 83 28.3 64 17.8 53 53 VRB 5 7 30.01 1016 10 16 0.00 0.00
3:52 pm 15:52 Partly Cloudy 81 27.2 62 16.7 53 53 NW 5 7 30.00 1016 10 16 0.00 0.00
4:52 pm 16:52 Mostly Sunny 81 27.2 64 17.8 57 57 WNW 5 7 29.99 1016 10 16 0.00 0.00
5:52 pm 17:52 Mostly Cloudy 80 26.7 64 17.8 58 58 NNW 3 6 29.99 1016 10 16 0.00 0.00
6:52 pm 18:52 Mostly Cloudy 80 26.7 64 17.8 58 58 N 6 9 29.98 1015 10 16 0.00 0.00
7:52 pm 19:52 Sunny 76 24.4 65 18.3 69 69 NNE 6 9 29.98 1015 10 16 0.00 0.00
8:52 pm 20:52 Clear 74 23.3 65 18.3 74 74 NNE 5 7 30.01 1016 10 16 0.00 0.00
9:52 pm 21:52 Clear 74 23.3 65 18.3 74 74 ENE 7 11 30.03 1017 10 16 0.00 0.00
10:52 pm 22:52 Clear 73 22.8 65 18.3 76 76 ENE 5 7 30.03 1017 10 16 0.00 0.00
11:52 pm 23:52 Clear 72 22.2 65 18.3 79 79 ENE 5 7 30.03 1017 10 16 0.00 0.00

Powered by AerisWeather